Location: Ferchesar
(52.6477°N, 12.4298°E)
Time: 05:32:02
(UTC+01:00)

Vanguard 2 Rocket - Pass Details

Date: 11 December 2021
Orbit: 553 x 3325 km, 32.9° (Epoch: 25 January)

Event Time Altitude Azimuth Distance (km) Brightness Sun altitude
Rises 18:25:03 0° 228° (SW) 3,103 10.6 -21.3°
Reaches altitude 10° 18:28:57 10° 195° (SSW) 2,547 9.5 -21.9°
Maximum altitude 18:30:59 12° 175° (S) 2,636 9.3 -22.2°
Drops below altitude 10° 18:33:19 10° 155° (SSE) 3,023 9.4 -22.5°
Enters shadow 18:35:36 - 142° (SE) 3,589 9.7 -22.9°
Sets 18:39:21 0° 128° (SE) 4,700 - -23.4°
